Year,Month,Day,Hour,Minute,Value (Times are PST for temperature in C)
2020,07,28,00,00,19.20
2020,07,28,00,01,19.20
2020,07,28,00,02,19.20
2020,07,28,00,03,19.20
2020,07,28,00,04,19.20
2020,07,28,00,05,19.20
2020,07,28,00,06,19.20
2020,07,28,00,07,19.20
2020,07,28,00,08,19.10
2020,07,28,00,09,19.10
2020,07,28,00,10,19.10
2020,07,28,00,11,19.10
2020,07,28,00,12,19.10
2020,07,28,00,13,19.10
2020,07,28,00,14,19.10
2020,07,28,00,15,19.10
2020,07,28,00,16,19.10
2020,07,28,00,17,19.10
2020,07,28,00,18,19.10
2020,07,28,00,19,19.10
2020,07,28,00,20,19.10
2020,07,28,00,21,19.10
2020,07,28,00,22,19.00
2020,07,28,00,23,19.00
2020,07,28,00,24,19.00
2020,07,28,00,25,19.00
2020,07,28,00,26,19.00
2020,07,28,00,27,19.00
2020,07,28,00,28,19.00
2020,07,28,00,29,18.90
2020,07,28,00,30,18.90
2020,07,28,00,31,18.90
2020,07,28,00,32,18.90
2020,07,28,00,33,18.90
2020,07,28,00,34,18.90
2020,07,28,00,35,18.90
2020,07,28,00,36,18.90
2020,07,28,00,37,18.90
2020,07,28,00,38,18.90
2020,07,28,00,39,18.90
2020,07,28,00,40,18.90
2020,07,28,00,41,18.90
2020,07,28,00,42,18.90
2020,07,28,00,43,18.90
2020,07,28,00,44,18.90
2020,07,28,00,45,18.90
2020,07,28,00,46,18.80
2020,07,28,00,47,18.80
2020,07,28,00,48,18.80
2020,07,28,00,49,18.80
2020,07,28,00,50,18.70
2020,07,28,00,51,18.70
2020,07,28,00,52,18.70
2020,07,28,00,53,18.70
2020,07,28,00,54,18.60
2020,07,28,00,55,18.60
2020,07,28,00,56,18.60
2020,07,28,00,57,18.60
2020,07,28,00,58,18.60
2020,07,28,00,59,18.50
2020,07,28,01,00,18.50
2020,07,28,01,01,18.50
2020,07,28,01,02,18.40
2020,07,28,01,03,18.40
2020,07,28,01,04,18.40
2020,07,28,01,05,18.40
2020,07,28,01,06,18.40
2020,07,28,01,07,18.40
2020,07,28,01,08,18.30
2020,07,28,01,09,18.30
2020,07,28,01,10,18.30
2020,07,28,01,11,18.30
2020,07,28,01,12,18.30
2020,07,28,01,13,18.20
2020,07,28,01,14,18.20
2020,07,28,01,15,18.20
2020,07,28,01,16,18.20
2020,07,28,01,17,18.20
2020,07,28,01,18,18.10
2020,07,28,01,19,18.10
2020,07,28,01,20,18.10
2020,07,28,01,21,18.10
2020,07,28,01,22,18.10
2020,07,28,01,23,18.00
2020,07,28,01,24,18.00
2020,07,28,01,25,18.00
2020,07,28,01,26,17.90
2020,07,28,01,27,17.90
2020,07,28,01,28,17.90
2020,07,28,01,29,17.90
2020,07,28,01,30,17.90
2020,07,28,01,31,17.90
2020,07,28,01,32,17.90
2020,07,28,01,33,17.90
2020,07,28,01,34,17.90
2020,07,28,01,35,17.80
2020,07,28,01,36,17.80
2020,07,28,01,37,17.80
2020,07,28,01,38,17.80
2020,07,28,01,39,17.80
2020,07,28,01,40,17.70
2020,07,28,01,41,17.70
2020,07,28,01,42,17.70
2020,07,28,01,43,17.70
2020,07,28,01,44,17.70
2020,07,28,01,45,17.70
2020,07,28,01,46,17.70
2020,07,28,01,47,17.70
2020,07,28,01,48,17.70
2020,07,28,01,49,17.70
2020,07,28,01,50,17.70
2020,07,28,01,51,17.70
2020,07,28,01,52,17.70
2020,07,28,01,53,17.70
2020,07,28,01,54,17.70
2020,07,28,01,55,17.70
2020,07,28,01,56,17.70
2020,07,28,01,57,17.70
2020,07,28,01,58,17.70
2020,07,28,01,59,17.70
2020,07,28,02,00,17.70
2020,07,28,02,01,17.70
2020,07,28,02,02,17.70
2020,07,28,02,03,17.70
2020,07,28,02,04,17.70
2020,07,28,02,05,17.70
2020,07,28,02,06,17.70
2020,07,28,02,07,17.60
2020,07,28,02,08,17.60
2020,07,28,02,09,17.60
2020,07,28,02,10,17.60
2020,07,28,02,11,17.60
2020,07,28,02,12,17.50
2020,07,28,02,13,17.50
2020,07,28,02,14,17.40
2020,07,28,02,15,17.40
2020,07,28,02,16,17.40
2020,07,28,02,17,17.30
2020,07,28,02,18,17.30
2020,07,28,02,19,17.30
2020,07,28,02,20,17.20
2020,07,28,02,21,17.20
2020,07,28,02,22,17.20
2020,07,28,02,23,17.20
2020,07,28,02,24,17.10
2020,07,28,02,25,17.10
2020,07,28,02,26,17.10
2020,07,28,02,27,17.10
2020,07,28,02,28,17.10
2020,07,28,02,29,17.10
2020,07,28,02,30,17.10
2020,07,28,02,31,17.10
2020,07,28,02,32,17.00
2020,07,28,02,33,17.00
2020,07,28,02,34,17.00
2020,07,28,02,35,17.00
2020,07,28,02,36,17.00
2020,07,28,02,37,16.90
2020,07,28,02,38,16.90
2020,07,28,02,39,16.90
2020,07,28,02,40,16.90
2020,07,28,02,41,16.90
2020,07,28,02,42,16.80
2020,07,28,02,43,16.80
2020,07,28,02,44,16.80
2020,07,28,02,45,16.80
2020,07,28,02,46,16.80
2020,07,28,02,47,16.70
2020,07,28,02,48,16.70
2020,07,28,02,49,16.70
2020,07,28,02,50,16.70
2020,07,28,02,51,16.70
2020,07,28,02,52,16.70
2020,07,28,02,53,16.70
2020,07,28,02,54,16.70
2020,07,28,02,55,16.70
2020,07,28,02,56,16.60
2020,07,28,02,57,16.60
2020,07,28,02,58,16.60
2020,07,28,02,59,16.60
2020,07,28,03,00,16.60
2020,07,28,03,01,16.60
2020,07,28,03,02,16.60
2020,07,28,03,03,16.60
2020,07,28,03,04,16.60
2020,07,28,03,05,16.50
2020,07,28,03,06,16.50
2020,07,28,03,07,16.50
2020,07,28,03,08,16.50
2020,07,28,03,09,16.50
2020,07,28,03,10,16.50
2020,07,28,03,11,16.50
2020,07,28,03,12,16.40
2020,07,28,03,13,16.40
2020,07,28,03,14,16.40
2020,07,28,03,15,16.40
2020,07,28,03,16,16.40
2020,07,28,03,17,16.40
2020,07,28,03,18,16.40
2020,07,28,03,19,16.40
2020,07,28,03,20,16.40
2020,07,28,03,21,16.30
2020,07,28,03,22,16.30
2020,07,28,03,23,16.30
2020,07,28,03,24,16.30
2020,07,28,03,25,16.30
2020,07,28,03,26,16.30
2020,07,28,03,27,16.30
2020,07,28,03,28,16.30
2020,07,28,03,29,16.30
2020,07,28,03,30,16.30
2020,07,28,03,31,16.20
2020,07,28,03,32,16.20
2020,07,28,03,33,16.20
2020,07,28,03,34,16.20
2020,07,28,03,35,16.20
2020,07,28,03,36,16.20
2020,07,28,03,37,16.20
2020,07,28,03,38,16.10
2020,07,28,03,39,16.10
2020,07,28,03,40,16.10
2020,07,28,03,41,16.10
2020,07,28,03,42,16.10
2020,07,28,03,43,16.00
2020,07,28,03,44,16.00
2020,07,28,03,45,16.00
2020,07,28,03,46,15.90
2020,07,28,03,47,15.90
2020,07,28,03,48,15.90
2020,07,28,03,49,15.90
2020,07,28,03,50,15.80
2020,07,28,03,51,15.80
2020,07,28,03,52,15.80
2020,07,28,03,53,15.80
2020,07,28,03,54,15.80
2020,07,28,03,55,15.80
2020,07,28,03,56,15.80
2020,07,28,03,57,15.80
2020,07,28,03,58,15.70
2020,07,28,03,59,15.70
2020,07,28,04,00,15.70
2020,07,28,04,01,15.70
2020,07,28,04,02,15.70
2020,07,28,04,03,15.70
2020,07,28,04,04,15.70
2020,07,28,04,05,15.70
2020,07,28,04,06,15.70
2020,07,28,04,07,15.70
2020,07,28,04,08,15.60
2020,07,28,04,09,15.60
2020,07,28,04,10,15.60
2020,07,28,04,11,15.60
2020,07,28,04,12,15.60
2020,07,28,04,13,15.60
2020,07,28,04,14,15.60
2020,07,28,04,15,15.60
2020,07,28,04,16,15.60
2020,07,28,04,17,15.60
2020,07,28,04,18,15.50
2020,07,28,04,19,15.50
2020,07,28,04,20,15.50
2020,07,28,04,21,15.50
2020,07,28,04,22,15.50
2020,07,28,04,23,15.50
2020,07,28,04,24,15.50
2020,07,28,04,25,15.50
2020,07,28,04,26,15.40
2020,07,28,04,27,15.40
2020,07,28,04,28,15.40
2020,07,28,04,29,15.40
2020,07,28,04,30,15.40
2020,07,28,04,31,15.40
2020,07,28,04,32,15.40
2020,07,28,04,33,15.40
2020,07,28,04,34,15.40
2020,07,28,04,35,15.40
2020,07,28,04,36,15.40
2020,07,28,04,37,15.40
2020,07,28,04,38,15.30
2020,07,28,04,39,15.30
2020,07,28,04,40,15.30
2020,07,28,04,41,15.30
2020,07,28,04,42,15.30
2020,07,28,04,43,15.20
2020,07,28,04,44,15.20
2020,07,28,04,45,15.20
2020,07,28,04,46,15.20
2020,07,28,04,47,15.20
2020,07,28,04,48,15.20
2020,07,28,04,49,15.20
2020,07,28,04,50,15.20
2020,07,28,04,51,15.10
2020,07,28,04,52,15.10
2020,07,28,04,53,15.10
2020,07,28,04,54,15.10
2020,07,28,04,55,15.10
2020,07,28,04,56,15.10
2020,07,28,04,57,15.10
2020,07,28,04,58,15.10
2020,07,28,04,59,15.10
2020,07,28,05,00,15.00
2020,07,28,05,01,15.00
2020,07,28,05,02,15.00
2020,07,28,05,03,15.00
2020,07,28,05,04,15.00
2020,07,28,05,05,15.00
2020,07,28,05,06,15.00
2020,07,28,05,07,14.90
2020,07,28,05,08,14.90
2020,07,28,05,09,14.90
2020,07,28,05,10,14.90
2020,07,28,05,11,14.90
2020,07,28,05,12,14.90
2020,07,28,05,13,14.90
2020,07,28,05,14,14.90
2020,07,28,05,15,15.00
2020,07,28,05,16,15.00
2020,07,28,05,17,15.00
2020,07,28,05,18,15.00
2020,07,28,05,19,15.00
2020,07,28,05,20,15.00
2020,07,28,05,21,15.00
2020,07,28,05,22,15.00
2020,07,28,05,23,15.00
2020,07,28,05,24,15.00
2020,07,28,05,25,15.00
2020,07,28,05,26,15.00
2020,07,28,05,27,15.00
2020,07,28,05,28,15.00
2020,07,28,05,29,15.00
2020,07,28,05,30,15.00
2020,07,28,05,31,15.00
2020,07,28,05,32,15.00
2020,07,28,05,33,14.90
2020,07,28,05,34,14.90
2020,07,28,05,35,14.90
2020,07,28,05,36,14.90
2020,07,28,05,37,14.90
2020,07,28,05,38,14.90
2020,07,28,05,39,14.90
2020,07,28,05,40,14.90
2020,07,28,05,41,14.90
2020,07,28,05,42,14.90
2020,07,28,05,43,14.90
2020,07,28,05,44,14.90
2020,07,28,05,45,14.80
2020,07,28,05,46,14.80
2020,07,28,05,47,14.80
2020,07,28,05,48,14.80
2020,07,28,05,49,14.80
2020,07,28,05,50,14.80
2020,07,28,05,51,14.80
2020,07,28,05,52,14.80
2020,07,28,05,53,14.80
2020,07,28,05,54,14.80
2020,07,28,05,55,14.80
2020,07,28,05,56,14.80
2020,07,28,05,57,14.80
2020,07,28,05,58,14.80
2020,07,28,05,59,14.80
2020,07,28,06,00,14.70
2020,07,28,06,01,14.70
2020,07,28,06,02,14.70
2020,07,28,06,03,14.70
2020,07,28,06,04,14.70
2020,07,28,06,05,14.70
2020,07,28,06,06,14.70
2020,07,28,06,07,14.80
2020,07,28,06,08,14.80
2020,07,28,06,09,14.80
2020,07,28,06,10,14.80
2020,07,28,06,11,14.80
2020,07,28,06,12,14.80
2020,07,28,06,13,14.80
2020,07,28,06,14,14.90
2020,07,28,06,15,14.90
2020,07,28,06,16,14.90
2020,07,28,06,17,14.90
2020,07,28,06,18,14.90
2020,07,28,06,19,15.00
2020,07,28,06,20,15.00
2020,07,28,06,21,15.10
2020,07,28,06,22,15.10
2020,07,28,06,23,15.10
2020,07,28,06,24,15.10
2020,07,28,06,25,15.10
2020,07,28,06,26,15.20
2020,07,28,06,27,15.20
2020,07,28,06,28,15.20
2020,07,28,06,29,15.20
2020,07,28,06,30,15.20
2020,07,28,06,31,15.20
2020,07,28,06,32,15.20
2020,07,28,06,33,15.30
2020,07,28,06,34,15.30
2020,07,28,06,35,15.30
2020,07,28,06,36,15.30
2020,07,28,06,37,15.30
2020,07,28,06,38,15.30
2020,07,28,06,39,15.30
2020,07,28,06,40,15.30
2020,07,28,06,41,15.40
2020,07,28,06,42,15.30
2020,07,28,06,43,15.40
2020,07,28,06,44,15.40
2020,07,28,06,45,15.40
2020,07,28,06,46,15.40
2020,07,28,06,47,15.40
2020,07,28,06,48,15.40
2020,07,28,06,49,15.50
2020,07,28,06,50,15.50
2020,07,28,06,51,15.50
2020,07,28,06,52,15.60
2020,07,28,06,53,15.60
2020,07,28,06,54,15.60
2020,07,28,06,55,15.70
2020,07,28,06,56,15.70
2020,07,28,06,57,15.70
2020,07,28,06,58,15.70
2020,07,28,06,59,15.70
2020,07,28,07,00,15.70
2020,07,28,07,01,15.70
2020,07,28,07,02,15.70
2020,07,28,07,03,15.70
2020,07,28,07,04,15.70
2020,07,28,07,05,15.70
2020,07,28,07,06,15.70
2020,07,28,07,07,15.70
2020,07,28,07,08,15.70
2020,07,28,07,09,15.70
2020,07,28,07,10,15.70
2020,07,28,07,11,15.70
2020,07,28,07,12,15.70
2020,07,28,07,13,15.70
2020,07,28,07,14,15.70
2020,07,28,07,15,15.70
2020,07,28,07,16,15.80
2020,07,28,07,17,15.80
2020,07,28,07,18,15.80
2020,07,28,07,19,15.80
2020,07,28,07,20,15.80
2020,07,28,07,21,15.90
2020,07,28,07,22,15.90
2020,07,28,07,23,15.90
2020,07,28,07,24,15.90
2020,07,28,07,25,15.90
2020,07,28,07,26,16.00
2020,07,28,07,27,16.00
2020,07,28,07,28,16.00
2020,07,28,07,29,16.10
2020,07,28,07,30,16.10
2020,07,28,07,31,16.10
2020,07,28,07,32,16.10
2020,07,28,07,33,16.10
2020,07,28,07,34,16.20
2020,07,28,07,35,16.20
2020,07,28,07,36,16.20
2020,07,28,07,37,16.30
2020,07,28,07,38,16.30
2020,07,28,07,39,16.30
2020,07,28,07,40,16.30
2020,07,28,07,41,16.30
2020,07,28,07,42,16.30
2020,07,28,07,43,16.30
2020,07,28,07,44,16.30
2020,07,28,07,45,16.30
2020,07,28,07,46,16.30
2020,07,28,07,47,16.30
2020,07,28,07,48,16.40
2020,07,28,07,49,16.40
2020,07,28,07,50,16.40
2020,07,28,07,51,16.40
2020,07,28,07,52,16.40
2020,07,28,07,53,16.50
2020,07,28,07,54,16.50
2020,07,28,07,55,16.50
2020,07,28,07,56,16.50
2020,07,28,07,57,16.60
2020,07,28,07,58,16.60
2020,07,28,07,59,16.60
2020,07,28,08,00,16.60
2020,07,28,08,01,16.60
2020,07,28,08,02,16.70
2020,07,28,08,03,16.70
2020,07,28,08,04,16.70
2020,07,28,08,05,16.70
2020,07,28,08,06,16.70
2020,07,28,08,07,16.80
2020,07,28,08,08,16.80
2020,07,28,08,09,16.80
2020,07,28,08,10,16.80
2020,07,28,08,11,16.80
2020,07,28,08,12,16.90
2020,07,28,08,13,16.90
2020,07,28,08,14,16.90
2020,07,28,08,15,16.90
2020,07,28,08,16,17.00
2020,07,28,08,17,17.00
2020,07,28,08,18,17.00
2020,07,28,08,19,17.00
2020,07,28,08,20,17.10
2020,07,28,08,21,17.10
2020,07,28,08,22,17.20
2020,07,28,08,23,17.20
2020,07,28,08,24,17.20
2020,07,28,08,25,17.20
2020,07,28,08,26,17.30
2020,07,28,08,27,17.30
2020,07,28,08,28,17.30
2020,07,28,08,29,17.40
2020,07,28,08,30,17.50
2020,07,28,08,31,17.50
2020,07,28,08,32,17.60
2020,07,28,08,33,17.60
2020,07,28,08,34,17.70
2020,07,28,08,35,17.70
2020,07,28,08,36,17.70
2020,07,28,08,37,17.70
2020,07,28,08,38,17.70
2020,07,28,08,39,17.80
2020,07,28,08,40,17.80
2020,07,28,08,41,17.90
2020,07,28,08,42,17.90
2020,07,28,08,43,17.90
2020,07,28,08,44,17.90
2020,07,28,08,45,18.00
2020,07,28,08,46,18.00
2020,07,28,08,47,18.00
2020,07,28,08,48,18.10
2020,07,28,08,49,18.10
2020,07,28,08,50,18.20
2020,07,28,08,51,18.20
2020,07,28,08,52,18.20
2020,07,28,08,53,18.30
2020,07,28,08,54,18.30
2020,07,28,08,55,18.30
2020,07,28,08,56,18.40
2020,07,28,08,57,18.40
2020,07,28,08,58,18.50
2020,07,28,08,59,18.50
2020,07,28,09,00,18.50
2020,07,28,09,01,18.60
2020,07,28,09,02,18.60
2020,07,28,09,03,18.70
2020,07,28,09,04,18.70
2020,07,28,09,05,18.80
2020,07,28,09,06,18.80
2020,07,28,09,07,18.90
2020,07,28,09,08,18.90
2020,07,28,09,09,19.00
2020,07,28,09,10,19.00
2020,07,28,09,11,19.10
2020,07,28,09,12,19.10
2020,07,28,09,13,19.20
2020,07,28,09,14,19.20
2020,07,28,09,15,19.30
2020,07,28,09,16,19.30
2020,07,28,09,17,19.30
2020,07,28,09,18,19.40
2020,07,28,09,19,19.40
2020,07,28,09,20,19.40
2020,07,28,09,21,19.40
2020,07,28,09,22,19.50
2020,07,28,09,23,19.50
2020,07,28,09,24,19.70
2020,07,28,09,25,19.70
2020,07,28,09,26,19.80
2020,07,28,09,27,19.80
2020,07,28,09,28,19.80
2020,07,28,09,29,19.90
2020,07,28,09,30,20.00
2020,07,28,09,31,20.00
2020,07,28,09,32,20.10
2020,07,28,09,33,20.10
2020,07,28,09,34,20.20
2020,07,28,09,35,20.30
2020,07,28,09,36,20.30
2020,07,28,09,37,20.40
2020,07,28,09,38,20.40
2020,07,28,09,39,20.50
2020,07,28,09,40,20.50
2020,07,28,09,41,20.60
2020,07,28,09,42,20.60
2020,07,28,09,43,20.70
2020,07,28,09,44,20.70
2020,07,28,09,45,20.80
2020,07,28,09,46,20.80
2020,07,28,09,47,20.80
2020,07,28,09,48,20.90
2020,07,28,09,49,20.90
2020,07,28,09,50,21.00
2020,07,28,09,51,21.00
2020,07,28,09,52,21.10
2020,07,28,09,53,21.20
2020,07,28,09,54,21.30
2020,07,28,09,55,21.40
2020,07,28,09,56,21.50
2020,07,28,09,57,21.50
2020,07,28,09,58,21.60
2020,07,28,09,59,21.60
2020,07,28,10,00,21.70
2020,07,28,10,01,21.80
2020,07,28,10,02,21.90
2020,07,28,10,03,22.00
2020,07,28,10,04,22.10
2020,07,28,10,05,22.10
2020,07,28,10,06,22.20
2020,07,28,10,07,22.30
2020,07,28,10,08,22.30
2020,07,28,10,09,22.40
2020,07,28,10,10,22.50
2020,07,28,10,11,22.60
2020,07,28,10,12,22.70
2020,07,28,10,13,22.80
2020,07,28,10,14,22.80
2020,07,28,10,15,22.90
2020,07,28,10,16,23.00
2020,07,28,10,17,23.10
2020,07,28,10,18,23.20
2020,07,28,10,19,23.30
2020,07,28,10,20,23.40
2020,07,28,10,21,23.40
2020,07,28,10,22,23.50
2020,07,28,10,23,23.60
2020,07,28,10,24,23.60
2020,07,28,10,25,23.60
2020,07,28,10,26,23.60
2020,07,28,10,27,23.60
2020,07,28,10,28,23.60
2020,07,28,10,29,23.60
2020,07,28,10,30,23.60
2020,07,28,10,31,23.60
2020,07,28,10,32,23.70
2020,07,28,10,33,23.80
2020,07,28,10,34,23.90
2020,07,28,10,35,24.10
2020,07,28,10,36,24.30
2020,07,28,10,37,24.40
2020,07,28,10,38,24.50
2020,07,28,10,39,24.60
2020,07,28,10,40,24.70
2020,07,28,10,41,24.70
2020,07,28,10,42,24.70
2020,07,28,10,43,24.60
2020,07,28,10,44,24.60
2020,07,28,10,45,24.60
2020,07,28,10,46,24.50
2020,07,28,10,47,24.50
2020,07,28,10,48,24.40
2020,07,28,10,49,24.40
2020,07,28,10,50,24.40
2020,07,28,10,51,24.40
2020,07,28,10,52,24.40
2020,07,28,10,53,24.40
2020,07,28,10,54,24.50
2020,07,28,10,55,24.60
2020,07,28,10,56,24.60
2020,07,28,10,57,24.70
2020,07,28,10,58,24.80
2020,07,28,10,59,24.90
2020,07,28,11,00,24.90
2020,07,28,11,01,24.90
2020,07,28,11,02,24.90
2020,07,28,11,03,24.90
2020,07,28,11,04,24.90
2020,07,28,11,05,24.90
2020,07,28,11,06,24.90
2020,07,28,11,07,25.00
2020,07,28,11,08,25.10
2020,07,28,11,09,25.10
2020,07,28,11,10,25.20
2020,07,28,11,11,25.20
2020,07,28,11,12,25.30
2020,07,28,11,13,25.30
2020,07,28,11,14,25.30
2020,07,28,11,15,25.40
2020,07,28,11,16,25.40
2020,07,28,11,17,25.50
2020,07,28,11,18,25.50
2020,07,28,11,19,25.60
2020,07,28,11,20,25.60
2020,07,28,11,21,25.60
2020,07,28,11,22,25.60
2020,07,28,11,23,25.60
2020,07,28,11,24,25.60
2020,07,28,11,25,25.60
2020,07,28,11,26,25.60
2020,07,28,11,27,25.60
2020,07,28,11,28,25.60
2020,07,28,11,29,25.60
2020,07,28,11,30,25.50
2020,07,28,11,31,25.50
2020,07,28,11,32,25.40
2020,07,28,11,33,25.40
2020,07,28,11,34,25.40
2020,07,28,11,35,25.40
2020,07,28,11,36,25.40
2020,07,28,11,37,25.50
2020,07,28,11,38,25.60
2020,07,28,11,39,25.60
2020,07,28,11,40,25.60
2020,07,28,11,41,25.60
2020,07,28,11,42,25.60
2020,07,28,11,43,25.60
2020,07,28,11,44,25.50
2020,07,28,11,45,25.50
2020,07,28,11,46,25.50
2020,07,28,11,47,25.50
2020,07,28,11,48,25.50
2020,07,28,11,49,25.60
2020,07,28,11,50,25.60
2020,07,28,11,51,25.60
2020,07,28,11,52,25.70
2020,07,28,11,53,25.60
2020,07,28,11,54,25.60
2020,07,28,11,55,25.60
2020,07,28,11,56,25.60
2020,07,28,11,57,25.70
2020,07,28,11,58,25.80
2020,07,28,11,59,25.90
2020,07,28,12,00,25.90
2020,07,28,12,01,26.00
2020,07,28,12,02,26.00
2020,07,28,12,03,26.00
2020,07,28,12,04,26.10
2020,07,28,12,05,26.10
2020,07,28,12,06,26.10
2020,07,28,12,07,26.10
2020,07,28,12,08,26.10
2020,07,28,12,09,26.10
2020,07,28,12,10,26.10
2020,07,28,12,11,26.00
2020,07,28,12,12,26.00
2020,07,28,12,13,26.00
2020,07,28,12,14,25.90
2020,07,28,12,15,25.90
2020,07,28,12,16,26.00
2020,07,28,12,17,26.00
2020,07,28,12,18,26.10
2020,07,28,12,19,26.10
2020,07,28,12,20,26.10
2020,07,28,12,21,26.10
2020,07,28,12,22,26.20
2020,07,28,12,23,26.20
2020,07,28,12,24,26.20
2020,07,28,12,25,26.30
2020,07,28,12,26,26.40
2020,07,28,12,27,26.40
2020,07,28,12,28,26.40
2020,07,28,12,29,26.40
2020,07,28,12,30,26.50
2020,07,28,12,31,26.60
2020,07,28,12,32,26.60
2020,07,28,12,33,26.70
2020,07,28,12,34,26.80
2020,07,28,12,35,26.90
2020,07,28,12,36,27.00
2020,07,28,12,37,27.00
2020,07,28,12,38,27.10
2020,07,28,12,39,27.10
2020,07,28,12,40,27.10
2020,07,28,12,41,27.10
2020,07,28,12,42,27.10
2020,07,28,12,43,27.10
2020,07,28,12,44,27.10
2020,07,28,12,45,27.10
2020,07,28,12,46,27.10
2020,07,28,12,47,27.00
2020,07,28,12,48,27.00
2020,07,28,12,49,27.00
2020,07,28,12,50,27.00
2020,07,28,12,51,27.00
2020,07,28,12,52,27.00
2020,07,28,12,53,27.00
2020,07,28,12,54,27.10
2020,07,28,12,55,27.10
2020,07,28,12,56,27.20
2020,07,28,12,57,27.20
2020,07,28,12,58,27.10
2020,07,28,12,59,27.10
2020,07,28,13,00,27.10
2020,07,28,13,01,27.00
2020,07,28,13,02,27.10
2020,07,28,13,03,27.10
2020,07,28,13,04,27.10
2020,07,28,13,05,27.20
2020,07,28,13,06,27.40
2020,07,28,13,07,27.40
2020,07,28,13,08,27.30
2020,07,28,13,09,27.30
2020,07,28,13,10,27.30
2020,07,28,13,11,27.30
2020,07,28,13,12,27.30
2020,07,28,13,13,27.40
2020,07,28,13,14,27.40
2020,07,28,13,15,27.50
2020,07,28,13,16,27.50
2020,07,28,13,17,27.60
2020,07,28,13,18,27.70
2020,07,28,13,19,27.80
2020,07,28,13,20,27.80
2020,07,28,13,21,27.80
2020,07,28,13,22,27.90
2020,07,28,13,23,27.90
2020,07,28,13,24,28.00
2020,07,28,13,25,28.10
2020,07,28,13,26,28.10
2020,07,28,13,27,28.20
2020,07,28,13,28,28.20
2020,07,28,13,29,28.20
2020,07,28,13,30,28.20
2020,07,28,13,31,28.20
2020,07,28,13,32,28.20
2020,07,28,13,33,28.20
2020,07,28,13,34,28.10
2020,07,28,13,35,28.10
2020,07,28,13,36,28.00
2020,07,28,13,37,28.00
2020,07,28,13,38,28.00
2020,07,28,13,39,28.00
2020,07,28,13,40,27.90
2020,07,28,13,41,27.90
2020,07,28,13,42,28.00
2020,07,28,13,43,28.00
2020,07,28,13,44,28.10
2020,07,28,13,45,28.10
2020,07,28,13,46,28.00
2020,07,28,13,47,27.90
2020,07,28,13,48,27.80
2020,07,28,13,49,27.80
2020,07,28,13,50,27.80
2020,07,28,13,51,27.80
2020,07,28,13,52,27.80
2020,07,28,13,53,27.90
2020,07,28,13,54,27.90
2020,07,28,13,55,27.80
2020,07,28,13,56,27.80
2020,07,28,13,57,27.70
2020,07,28,13,58,27.70
2020,07,28,13,59,27.60
2020,07,28,14,00,27.60
2020,07,28,14,01,27.70
2020,07,28,14,02,27.80
2020,07,28,14,03,28.00
2020,07,28,14,04,28.10
2020,07,28,14,05,28.10
2020,07,28,14,06,28.10
2020,07,28,14,07,28.00
2020,07,28,14,08,28.00
2020,07,28,14,09,28.10
2020,07,28,14,10,28.10
2020,07,28,14,11,28.00
2020,07,28,14,12,27.90
2020,07,28,14,13,27.80
2020,07,28,14,14,27.80
2020,07,28,14,15,27.80
2020,07,28,14,16,27.80
2020,07,28,14,17,27.90
2020,07,28,14,18,27.90
2020,07,28,14,19,27.90
2020,07,28,14,20,28.00
2020,07,28,14,21,28.00
2020,07,28,14,22,28.00
2020,07,28,14,23,27.90
2020,07,28,14,24,27.90
2020,07,28,14,25,27.90
2020,07,28,14,26,27.90
2020,07,28,14,27,27.80
2020,07,28,14,28,27.60
2020,07,28,14,29,27.60
2020,07,28,14,30,27.50
2020,07,28,14,31,27.50
2020,07,28,14,32,27.50
2020,07,28,14,33,27.50
2020,07,28,14,34,27.40
2020,07,28,14,35,27.40
2020,07,28,14,36,27.40
2020,07,28,14,37,27.40
2020,07,28,14,38,27.30
2020,07,28,14,39,27.30
2020,07,28,14,40,27.30
2020,07,28,14,41,27.30
2020,07,28,14,42,27.30
2020,07,28,14,43,27.30
2020,07,28,14,44,27.30
2020,07,28,14,45,27.30
2020,07,28,14,46,27.20
2020,07,28,14,47,27.20
2020,07,28,14,48,27.20
2020,07,28,14,49,27.10
2020,07,28,14,50,27.10
2020,07,28,14,51,27.10
2020,07,28,14,52,27.20
2020,07,28,14,53,27.20
2020,07,28,14,54,27.20
2020,07,28,14,55,27.20
2020,07,28,14,56,27.30
2020,07,28,14,57,27.30
2020,07,28,14,58,27.30
2020,07,28,14,59,27.30
2020,07,28,15,00,27.20
2020,07,28,15,01,27.20
2020,07,28,15,02,27.20
2020,07,28,15,03,27.20
2020,07,28,15,04,27.20
2020,07,28,15,05,27.10
2020,07,28,15,06,27.10
2020,07,28,15,07,27.10
2020,07,28,15,08,27.10
2020,07,28,15,09,27.10
2020,07,28,15,10,27.00
2020,07,28,15,11,27.00
2020,07,28,15,12,26.90
2020,07,28,15,13,26.90
2020,07,28,15,14,26.90
2020,07,28,15,15,26.90
2020,07,28,15,16,26.90
2020,07,28,15,17,27.00
2020,07,28,15,18,26.90
2020,07,28,15,19,26.90
2020,07,28,15,20,26.80
2020,07,28,15,21,26.80
2020,07,28,15,22,26.80
2020,07,28,15,23,26.80
2020,07,28,15,24,26.80
2020,07,28,15,25,26.70
2020,07,28,15,26,26.70
2020,07,28,15,27,26.80
2020,07,28,15,28,26.80
2020,07,28,15,29,26.70
2020,07,28,15,30,26.70
2020,07,28,15,31,26.70
2020,07,28,15,32,26.70
2020,07,28,15,33,26.80
2020,07,28,15,34,26.80
2020,07,28,15,35,26.80
2020,07,28,15,36,26.70
2020,07,28,15,37,26.70
2020,07,28,15,38,26.70
2020,07,28,15,39,26.70
2020,07,28,15,40,26.70
2020,07,28,15,41,26.60
2020,07,28,15,42,26.50
2020,07,28,15,43,26.40
2020,07,28,15,44,26.30
2020,07,28,15,45,26.30
2020,07,28,15,46,26.30
2020,07,28,15,47,26.40
2020,07,28,15,48,26.40
2020,07,28,15,49,26.40
2020,07,28,15,50,26.40
2020,07,28,15,51,26.40
2020,07,28,15,52,26.40
2020,07,28,15,53,26.40
2020,07,28,15,54,26.40
2020,07,28,15,55,26.40
2020,07,28,15,56,26.40
2020,07,28,15,57,26.40
2020,07,28,15,58,26.30
2020,07,28,15,59,26.30
2020,07,28,16,00,26.30
2020,07,28,16,01,26.30
2020,07,28,16,02,26.30
2020,07,28,16,03,26.30
2020,07,28,16,04,26.30
2020,07,28,16,05,26.30
2020,07,28,16,06,26.30
2020,07,28,16,07,26.40
2020,07,28,16,08,26.40
2020,07,28,16,09,26.40
2020,07,28,16,10,26.50
2020,07,28,16,11,26.50
2020,07,28,16,12,26.50
2020,07,28,16,13,26.50
2020,07,28,16,14,26.50
2020,07,28,16,15,26.50
2020,07,28,16,16,26.40
2020,07,28,16,17,26.40
2020,07,28,16,18,26.40
2020,07,28,16,19,26.40
2020,07,28,16,20,26.30
2020,07,28,16,21,26.30
2020,07,28,16,22,26.20
2020,07,28,16,23,26.20
2020,07,28,16,24,26.20
2020,07,28,16,25,26.10
2020,07,28,16,26,26.00
2020,07,28,16,27,25.90
2020,07,28,16,28,25.90
2020,07,28,16,29,25.90
2020,07,28,16,30,25.90
2020,07,28,16,31,25.90
2020,07,28,16,32,25.90
2020,07,28,16,33,26.00
2020,07,28,16,34,25.90
2020,07,28,16,35,25.90
2020,07,28,16,36,25.90
2020,07,28,16,37,26.00
2020,07,28,16,38,26.00
2020,07,28,16,39,26.00
2020,07,28,16,40,26.00
2020,07,28,16,41,26.00
2020,07,28,16,42,26.00
2020,07,28,16,43,25.90
2020,07,28,16,44,25.90
2020,07,28,16,45,25.90
2020,07,28,16,46,25.90
2020,07,28,16,47,25.90
2020,07,28,16,48,25.90
2020,07,28,16,49,26.00
2020,07,28,16,50,26.00
2020,07,28,16,51,26.00
2020,07,28,16,52,26.00
2020,07,28,16,53,26.00
2020,07,28,16,54,26.00
2020,07,28,16,55,26.00
2020,07,28,16,56,26.00
2020,07,28,16,57,26.10
2020,07,28,16,58,26.00
2020,07,28,16,59,25.90
2020,07,28,17,00,25.90
2020,07,28,17,01,25.80
2020,07,28,17,02,25.80
2020,07,28,17,03,25.90
2020,07,28,17,04,25.90
2020,07,28,17,05,25.90
2020,07,28,17,06,26.00
2020,07,28,17,07,25.90
2020,07,28,17,08,25.90
2020,07,28,17,09,25.90
2020,07,28,17,10,25.90
2020,07,28,17,11,25.90
2020,07,28,17,12,25.70
2020,07,28,17,13,25.60
2020,07,28,17,14,25.50
2020,07,28,17,15,25.50
2020,07,28,17,16,25.40
2020,07,28,17,17,25.40
2020,07,28,17,18,25.40
2020,07,28,17,19,25.30